Time,TemperatureF,DewpointF,PressureIn,WindDirection,WindDirectionDegrees,WindSpeedMPH,WindSpeedGustMPH,Humidity,HourlyPrecipIn,Conditions,Clouds,dailyrainin,SoftwareType,DateUTC
2013-03-19 00:01:00,33.5,11.2,30.18,SE,130,0.0,1.0,39,0.00,,---,0.07,VWS V14.01,2013-03-19 05:01:00,
2013-03-19 00:05:00,33.5,10.0,30.18,SE,130,0.0,1.0,37,0.00,,---,0.00,VWS V14.01,2013-03-19 05:05:00,
2013-03-19 00:10:00,33.4,9.9,30.18,SE,130,0.0,1.0,37,0.00,,---,0.00,VWS V14.01,2013-03-19 05:10:00,
2013-03-19 00:15:00,33.3,10.4,30.18,SE,130,1.0,1.0,38,0.00,,---,0.00,VWS V14.01,2013-03-19 05:15:00,
2013-03-19 00:20:00,33.4,11.1,30.19,SE,133,1.0,2.0,39,0.00,,---,0.00,VWS V14.01,2013-03-19 05:20:00,
2013-03-19 00:25:00,33.4,11.1,30.19,SE,136,1.0,2.0,39,0.00,,---,0.00,VWS V14.01,2013-03-19 05:25:00,
2013-03-19 00:30:00,33.4,11.1,30.19,SE,135,0.0,2.0,39,0.00,,---,0.00,VWS V14.01,2013-03-19 05:30:00,
2013-03-19 00:35:00,33.3,11.0,30.19,SE,135,0.0,1.0,39,0.00,,---,0.00,VWS V14.01,2013-03-19 05:35:00,
2013-03-19 00:40:00,33.3,9.9,30.19,South,187,2.0,3.0,37,0.00,,---,0.00,VWS V14.01,2013-03-19 05:40:00,
2013-03-19 00:45:00,33.3,10.4,30.19,South,187,0.0,3.0,38,0.00,,---,0.00,VWS V14.01,2013-03-19 05:45:00,
2013-03-19 00:50:00,33.3,11.0,30.19,South,187,0.0,3.0,39,0.00,,---,0.00,VWS V14.01,2013-03-19 05:50:00,
2013-03-19 00:55:00,33.3,10.4,30.19,South,187,1.0,3.0,38,0.00,,---,0.00,VWS V14.01,2013-03-19 05:55:00,
2013-03-19 01:00:00,33.3,11.0,30.19,South,187,0.0,3.0,39,0.00,,---,0.00,VWS V14.01,2013-03-19 06:00:00,
2013-03-19 01:05:00,33.2,10.9,30.20,South,187,0.0,0.0,39,0.00,,---,0.00,VWS V14.01,2013-03-19 06:05:00,
2013-03-19 01:10:00,33.1,10.3,30.20,South,187,1.0,1.0,38,0.00,,---,0.00,VWS V14.01,2013-03-19 06:10:00,
2013-03-19 01:15:00,33.0,10.2,30.20,SE,135,2.0,2.0,38,0.00,,---,0.00,VWS V14.01,2013-03-19 06:15:00,
2013-03-19 01:20:00,33.1,10.9,30.20,East,99,1.0,3.0,39,0.00,,---,0.00,VWS V14.01,2013-03-19 06:20:00,
2013-03-19 01:25:00,33.1,11.4,30.20,East,101,1.0,3.0,40,0.00,,---,0.00,VWS V14.01,2013-03-19 06:25:00,
2013-03-19 01:30:00,33.1,12.0,30.20,East,100,1.0,3.0,41,0.00,,---,0.00,VWS V14.01,2013-03-19 06:30:00,
2013-03-19 01:35:00,33.1,12.5,30.20,East,101,0.0,1.0,42,0.00,,---,0.00,VWS V14.01,2013-03-19 06:35:00,
2013-03-19 01:40:00,32.9,12.9,30.19,East,101,0.0,1.0,43,0.00,,---,0.00,VWS V14.01,2013-03-19 06:40:00,
2013-03-19 01:45:00,32.8,13.3,30.19,East,101,1.0,1.0,44,0.00,,---,0.00,VWS V14.01,2013-03-19 06:45:00,
2013-03-19 01:50:00,32.8,13.3,30.19,East,101,1.0,1.0,44,0.00,,---,0.00,VWS V14.01,2013-03-19 06:50:00,
2013-03-19 01:55:00,32.7,13.7,30.19,East,94,2.0,3.0,45,0.00,,---,0.00,VWS V14.01,2013-03-19 06:55:00,
2013-03-19 02:00:00,32.6,14.6,30.19,East,94,1.0,3.0,47,0.00,,---,0.00,VWS V14.01,2013-03-19 07:00:00,
2013-03-19 02:05:00,32.5,15.0,30.19,East,94,0.0,1.0,48,0.00,,---,0.00,VWS V14.01,2013-03-19 07:05:00,
2013-03-19 02:10:00,32.3,15.3,30.19,East,94,0.0,2.0,49,0.00,,---,0.00,VWS V14.01,2013-03-19 07:10:00,
2013-03-19 02:15:00,32.2,15.2,30.19,East,94,0.0,2.0,49,0.00,,---,0.00,VWS V14.01,2013-03-19 07:15:00,
2013-03-19 02:20:00,32.1,15.1,30.19,East,94,1.0,2.0,49,0.00,,---,0.00,VWS V14.01,2013-03-19 07:20:00,
2013-03-19 02:25:00,32.0,15.5,30.19,East,94,0.0,2.0,50,0.00,,---,0.00,VWS V14.01,2013-03-19 07:25:00,
2013-03-19 02:30:00,31.9,14.9,30.19,East,94,0.0,2.0,49,0.00,,---,0.00,VWS V14.01,2013-03-19 07:30:00,
2013-03-19 02:35:00,31.9,14.9,30.19,East,94,0.0,1.0,49,0.00,,---,0.00,VWS V14.01,2013-03-19 07:35:00,
2013-03-19 02:40:00,32.0,15.0,30.19,East,94,1.0,2.0,49,0.00,,---,0.00,VWS V14.01,2013-03-19 07:40:00,
2013-03-19 02:45:00,32.1,15.1,30.19,East,94,0.0,2.0,49,0.00,,---,0.00,VWS V14.01,2013-03-19 07:45:00,
2013-03-19 02:50:00,32.0,15.5,30.19,East,94,1.0,2.0,50,0.00,,---,0.00,VWS V14.01,2013-03-19 07:50:00,
2013-03-19 02:55:00,32.0,15.9,30.19,East,94,1.0,2.0,51,0.00,,---,0.00,VWS V14.01,2013-03-19 07:55:00,
2013-03-19 03:00:00,32.1,16.5,30.19,East,94,0.0,2.0,52,0.00,,---,0.00,VWS V14.01,2013-03-19 08:00:00,
2013-03-19 03:05:00,32.1,16.5,30.20,East,94,0.0,1.0,52,0.00,,---,0.00,VWS V14.01,2013-03-19 08:05:00,
2013-03-19 03:10:00,32.0,16.8,30.20,East,94,0.0,1.0,53,0.00,,---,0.00,VWS V14.01,2013-03-19 08:10:00,
2013-03-19 03:15:00,32.1,16.5,30.20,ESE,108,2.0,3.0,52,0.00,,---,0.00,VWS V14.01,2013-03-19 08:15:00,
2013-03-19 03:20:00,32.1,16.0,30.19,ESE,108,1.0,3.0,51,0.00,,---,0.00,VWS V14.01,2013-03-19 08:20:00,
2013-03-19 03:25:00,32.1,16.0,30.19,ESE,107,2.0,3.0,51,0.00,,---,0.00,VWS V14.01,2013-03-19 08:25:00,
2013-03-19 03:30:00,32.1,15.6,30.18,ESE,104,0.0,3.0,50,0.00,,---,0.00,VWS V14.01,2013-03-19 08:30:00,
2013-03-19 03:35:00,31.9,15.8,30.18,ESE,105,0.0,0.0,51,0.00,,---,0.00,VWS V14.01,2013-03-19 08:35:00,
2013-03-19 03:40:00,31.7,15.7,30.17,ESE,105,0.0,1.0,51,0.00,,---,0.00,VWS V14.01,2013-03-19 08:40:00,
2013-03-19 03:45:00,31.6,15.6,30.17,ESE,105,0.0,1.0,51,0.00,,---,0.00,VWS V14.01,2013-03-19 08:45:00,
2013-03-19 03:50:00,31.5,15.9,30.17,ESE,105,1.0,1.0,52,0.00,,---,0.00,VWS V14.01,2013-03-19 08:50:00,
2013-03-19 03:55:00,31.5,15.5,30.16,ESE,104,0.0,1.0,51,0.00,,---,0.00,VWS V14.01,2013-03-19 08:55:00,
2013-03-19 04:00:00,31.4,15.8,30.16,East,101,1.0,2.0,52,0.00,,---,0.00,VWS V14.01,2013-03-19 09:00:00,
2013-03-19 04:05:00,31.2,16.1,30.17,ESE,102,0.0,0.0,53,0.00,,---,0.00,VWS V14.01,2013-03-19 09:05:00,
2013-03-19 04:10:00,31.0,16.3,30.17,ESE,102,0.0,1.0,54,0.00,,---,0.00,VWS V14.01,2013-03-19 09:10:00,
2013-03-19 04:15:00,30.9,16.6,30.16,East,101,1.0,1.0,55,0.00,,---,0.00,VWS V14.01,2013-03-19 09:15:00,
2013-03-19 04:20:00,30.8,16.1,30.17,ESE,102,0.0,1.0,54,0.00,,---,0.00,VWS V14.01,2013-03-19 09:20:00,
2013-03-19 04:25:00,30.8,16.1,30.16,East,101,0.0,1.0,54,0.00,,---,0.00,VWS V14.01,2013-03-19 09:25:00,
2013-03-19 04:30:00,30.8,16.1,30.17,ESE,102,0.0,1.0,54,0.00,,---,0.00,VWS V14.01,2013-03-19 09:30:00,
2013-03-19 04:35:00,30.7,16.0,30.17,East,101,0.0,1.0,54,0.00,,---,0.00,VWS V14.01,2013-03-19 09:35:00,
2013-03-19 04:40:00,30.6,16.4,30.18,ESE,103,0.0,1.0,55,0.00,,---,0.00,VWS V14.01,2013-03-19 09:40:00,
2013-03-19 04:45:00,30.4,16.6,30.17,East,101,0.0,1.0,56,0.00,,---,0.00,VWS V14.01,2013-03-19 09:45:00,
2013-03-19 04:50:00,30.4,16.6,30.17,East,101,1.0,2.0,56,0.00,,---,0.00,VWS V14.01,2013-03-19 09:50:00,
2013-03-19 04:55:00,30.2,16.4,30.17,East,80,2.0,3.0,56,0.00,,---,0.00,VWS V14.01,2013-03-19 09:55:00,
2013-03-19 05:00:00,30.3,16.5,30.17,ENE,75,2.0,3.0,56,0.00,,---,0.00,VWS V14.01,2013-03-19 10:00:00,
2013-03-19 05:05:00,30.4,16.2,30.17,ENE,76,1.0,3.0,55,0.00,,---,0.00,VWS V14.01,2013-03-19 10:05:00,
2013-03-19 05:10:00,30.5,16.3,30.17,ENE,76,2.0,3.0,55,0.00,,---,0.00,VWS V14.01,2013-03-19 10:10:00,
2013-03-19 05:15:00,30.6,15.9,30.17,ENE,76,1.0,3.0,54,0.00,,---,0.00,VWS V14.01,2013-03-19 10:15:00,
2013-03-19 05:20:00,30.5,15.9,30.17,ENE,77,0.0,3.0,54,0.00,,---,0.00,VWS V14.01,2013-03-19 10:20:00,
2013-03-19 05:25:00,30.6,15.9,30.17,ENE,76,1.0,3.0,54,0.00,,---,0.00,VWS V14.01,2013-03-19 10:25:00,
2013-03-19 05:30:00,30.6,15.9,30.17,ENE,77,0.0,3.0,54,0.00,,---,0.00,VWS V14.01,2013-03-19 10:30:00,
2013-03-19 05:35:00,30.6,15.5,30.17,North,10,0.0,1.0,53,0.00,,---,0.00,VWS V14.01,2013-03-19 10:35:00,
2013-03-19 05:40:00,30.6,15.5,30.17,NNE,19,1.0,2.0,53,0.00,,---,0.00,VWS V14.01,2013-03-19 10:40:00,
2013-03-19 05:45:00,30.8,15.3,30.18,NE,54,0.0,4.0,52,0.00,,---,0.00,VWS V14.01,2013-03-19 10:45:00,
2013-03-19 05:50:00,30.8,15.3,30.17,NE,42,1.0,4.0,52,0.00,,---,0.00,VWS V14.01,2013-03-19 10:50:00,
2013-03-19 05:55:00,30.8,15.7,30.18,NNE,19,1.0,4.0,53,0.00,,---,0.00,VWS V14.01,2013-03-19 10:55:00,
2013-03-19 06:00:00,30.8,15.3,30.18,NE,36,3.0,4.0,52,0.00,,---,0.00,VWS V14.01,2013-03-19 11:00:00,
2013-03-19 06:05:00,30.9,15.4,30.18,North,360,3.0,4.0,52,0.00,,---,0.00,VWS V14.01,2013-03-19 11:05:00,
2013-03-19 06:10:00,30.9,15.8,30.17,NE,53,3.0,4.0,53,0.00,,---,0.00,VWS V14.01,2013-03-19 11:10:00,
2013-03-19 06:15:00,30.9,15.4,30.18,East,101,1.0,5.0,52,0.00,,---,0.00,VWS V14.01,2013-03-19 11:15:00,
2013-03-19 06:20:00,30.9,15.4,30.18,North,360,2.0,5.0,52,0.00,,---,0.00,VWS V14.01,2013-03-19 11:20:00,
2013-03-19 06:25:00,30.9,15.4,30.18,ENE,61,2.0,5.0,52,0.00,,---,0.00,VWS V14.01,2013-03-19 11:25:00,
2013-03-19 06:30:00,30.9,15.4,30.18,ENE,67,2.0,5.0,52,0.00,,---,0.00,VWS V14.01,2013-03-19 11:30:00,
2013-03-19 06:35:00,30.9,15.8,30.18,East,80,1.0,2.0,53,0.00,,---,0.00,VWS V14.01,2013-03-19 11:35:00,
2013-03-19 06:40:00,30.8,16.1,30.19,ENE,64,1.0,5.0,54,0.00,,---,0.00,VWS V14.01,2013-03-19 11:40:00,
2013-03-19 06:45:00,30.9,16.6,30.19,East,87,1.0,5.0,55,0.00,,---,0.00,VWS V14.01,2013-03-19 11:45:00,
2013-03-19 06:50:00,30.9,17.5,30.19,ENE,75,3.0,5.0,57,0.00,,---,0.00,VWS V14.01,2013-03-19 11:50:00,
2013-03-19 06:55:00,30.8,18.2,30.20,East,87,2.0,5.0,59,0.00,,---,0.00,VWS V14.01,2013-03-19 11:55:00,
2013-03-19 07:00:00,30.8,19.7,30.20,East,96,1.0,5.0,63,0.00,,---,0.00,VWS V14.01,2013-03-19 12:00:00,
2013-03-19 07:05:00,30.8,21.1,30.20,ESE,104,1.0,3.0,67,0.00,,---,0.00,VWS V14.01,2013-03-19 12:05:00,
2013-03-19 07:10:00,30.8,21.9,30.21,East,94,2.0,3.0,69,0.00,,---,0.00,VWS V14.01,2013-03-19 12:10:00,
2013-03-19 07:15:00,30.8,23.2,30.21,East,80,6.0,6.0,73,0.00,,---,0.00,VWS V14.01,2013-03-19 12:15:00,
2013-03-19 07:20:00,30.9,24.2,30.21,East,100,0.0,6.0,76,0.00,,---,0.00,VWS V14.01,2013-03-19 12:20:00,
2013-03-19 07:25:00,30.9,25.2,30.22,ESE,112,1.0,6.0,79,0.00,,---,0.00,VWS V14.01,2013-03-19 12:25:00,
2013-03-19 07:30:00,31.0,25.3,30.21,ESE,111,1.0,6.0,79,0.00,,---,0.00,VWS V14.01,2013-03-19 12:30:00,
2013-03-19 07:35:00,31.0,25.9,30.21,East,89,1.0,2.0,81,0.00,,---,0.00,VWS V14.01,2013-03-19 12:35:00,
2013-03-19 07:40:00,31.1,26.3,30.22,ESE,118,2.0,6.0,82,0.00,,---,0.00,VWS V14.01,2013-03-19 12:40:00,
2013-03-19 07:45:00,31.2,26.4,30.22,ESE,119,1.0,6.0,82,0.00,,---,0.00,VWS V14.01,2013-03-19 12:45:00,
2013-03-19 07:50:00,31.3,26.8,30.21,ENE,65,3.0,6.0,83,0.00,,---,0.00,VWS V14.01,2013-03-19 12:50:00,
2013-03-19 07:55:00,31.3,26.8,30.22,ENE,77,1.0,6.0,83,0.00,,---,0.00,VWS V14.01,2013-03-19 12:55:00,
2013-03-19 08:00:00,31.2,26.9,30.23,SE,132,2.0,6.0,84,0.00,,---,0.00,VWS V14.01,2013-03-19 13:00:00,
2013-03-19 08:05:00,31.3,27.3,30.23,ESE,123,0.0,2.0,85,0.00,,---,0.00,VWS V14.01,2013-03-19 13:05:00,
2013-03-19 08:10:00,31.4,27.4,30.23,ESE,123,0.0,2.0,85,0.00,,---,0.00,VWS V14.01,2013-03-19 13:10:00,
2013-03-19 08:15:00,31.4,27.7,30.22,East,100,1.0,3.0,86,0.00,,---,0.00,VWS V14.01,2013-03-19 13:15:00,
2013-03-19 08:20:00,31.6,27.9,30.23,SE,130,1.0,3.0,86,0.00,,---,0.00,VWS V14.01,2013-03-19 13:20:00,
2013-03-19 08:25:00,31.7,28.0,30.23,ESE,123,1.0,3.0,86,0.00,,---,0.00,VWS V14.01,2013-03-19 13:25:00,
2013-03-19 08:30:00,31.7,28.0,30.23,ESE,117,0.0,3.0,86,0.00,,---,0.00,VWS V14.01,2013-03-19 13:30:00,
2013-03-19 08:35:00,31.8,28.4,30.24,SE,127,2.0,2.0,87,0.00,,---,0.00,VWS V14.01,2013-03-19 13:35:00,
2013-03-19 08:40:00,31.8,28.4,30.24,SE,137,2.0,5.0,87,0.00,,---,0.00,VWS V14.01,2013-03-19 13:40:00,
2013-03-19 08:45:00,31.8,28.4,30.24,SE,132,3.0,5.0,87,0.00,,---,0.00,VWS V14.01,2013-03-19 13:45:00,
2013-03-19 08:50:00,31.9,28.5,30.24,ESE,123,0.0,5.0,87,0.00,,---,0.00,VWS V14.01,2013-03-19 13:50:00,
2013-03-19 08:55:00,32.1,28.7,30.24,SE,128,2.0,5.0,87,0.00,,---,0.00,VWS V14.01,2013-03-19 13:55:00,
2013-03-19 09:00:00,32.2,28.8,30.25,SE,126,0.0,5.0,87,0.00,,---,0.00,VWS V14.01,2013-03-19 14:00:00,
2013-03-19 09:05:00,32.3,28.9,30.24,East,82,3.0,7.0,87,0.00,,---,0.00,VWS V14.01,2013-03-19 14:05:00,
2013-03-19 09:10:00,32.6,29.2,30.25,East,97,3.0,7.0,87,0.00,,---,0.00,VWS V14.01,2013-03-19 14:10:00,
2013-03-19 09:15:00,32.8,29.4,30.25,ESE,114,5.0,7.0,87,0.00,,---,0.00,VWS V14.01,2013-03-19 14:15:00,
2013-03-19 09:20:00,32.9,29.5,30.25,ESE,112,4.0,7.0,87,0.00,,---,0.00,VWS V14.01,2013-03-19 14:20:00,
2013-03-19 09:25:00,33.2,29.8,30.25,ESE,114,3.0,7.0,87,0.00,,---,0.00,VWS V14.01,2013-03-19 14:25:00,
2013-03-19 09:30:00,33.5,29.8,30.25,SE,130,4.0,7.0,86,0.00,,---,0.00,VWS V14.01,2013-03-19 14:30:00,
2013-03-19 09:35:00,33.9,30.2,30.24,ESE,106,3.0,4.0,86,0.00,,---,0.00,VWS V14.01,2013-03-19 14:35:00,
2013-03-19 09:40:00,34.2,30.2,30.25,ESE,120,4.0,6.0,85,0.00,,---,0.00,VWS V14.01,2013-03-19 14:40:00,
2013-03-19 09:45:00,34.6,30.3,30.26,SE,134,5.0,9.0,84,0.00,,---,0.00,VWS V14.01,2013-03-19 14:45:00,
2013-03-19 09:50:00,34.9,30.3,30.26,ESE,108,4.0,9.0,83,0.00,,---,0.00,VWS V14.01,2013-03-19 14:50:00,
2013-03-19 09:55:00,35.0,30.4,30.26,ESE,118,4.0,11.0,83,0.00,,---,0.00,VWS V14.01,2013-03-19 14:55:00,
2013-03-19 10:00:00,35.2,30.3,30.26,ESE,110,4.0,11.0,82,0.00,,---,0.00,VWS V14.01,2013-03-19 15:00:00,
2013-03-19 10:05:00,35.5,30.3,30.27,SSE,155,5.0,8.0,81,0.00,,---,0.00,VWS V14.01,2013-03-19 15:05:00,
2013-03-19 10:10:00,35.8,30.5,30.27,SE,130,4.0,9.0,81,0.00,,---,0.00,VWS V14.01,2013-03-19 15:10:00,
2013-03-19 10:15:00,36.0,30.4,30.27,ESE,111,4.0,9.0,80,0.00,,---,0.00,VWS V14.01,2013-03-19 15:15:00,
2013-03-19 10:20:00,36.1,30.2,30.27,ESE,121,3.0,11.0,79,0.00,,---,0.00,VWS V14.01,2013-03-19 15:20:00,
2013-03-19 10:25:00,36.3,30.4,30.27,ESE,111,5.0,11.0,79,0.00,,---,0.00,VWS V14.01,2013-03-19 15:25:00,
2013-03-19 10:30:00,36.8,30.6,30.27,ESE,110,3.0,11.0,78,0.00,,---,0.00,VWS V14.01,2013-03-19 15:30:00,
2013-03-19 10:35:00,37.2,30.4,30.27,ESE,121,3.0,5.0,76,0.00,,---,0.00,VWS V14.01,2013-03-19 15:35:00,
2013-03-19 10:40:00,37.5,30.0,30.28,ESE,116,7.0,11.0,74,0.00,,---,0.00,VWS V14.01,2013-03-19 15:40:00,
2013-03-19 10:45:00,37.6,29.1,30.28,ESE,114,5.0,11.0,71,0.00,,---,0.00,VWS V14.01,2013-03-19 15:45:00,
2013-03-19 10:50:00,37.9,29.0,30.28,SE,139,9.0,13.0,70,0.00,,---,0.00,VWS V14.01,2013-03-19 15:50:00,
2013-03-19 10:55:00,38.3,29.4,30.28,SE,145,7.0,13.0,70,0.00,,---,0.00,VWS V14.01,2013-03-19 15:55:00,
2013-03-19 11:00:00,38.5,28.9,30.28,SE,134,10.0,14.0,68,0.00,,---,0.00,VWS V14.01,2013-03-19 16:00:00,
2013-03-19 11:05:00,38.8,29.2,30.29,SE,142,10.0,12.0,68,0.00,,---,0.00,VWS V14.01,2013-03-19 16:05:00,
2013-03-19 11:10:00,38.8,29.2,30.29,SE,142,7.0,14.0,68,0.00,,---,0.00,VWS V14.01,2013-03-19 16:10:00,
2013-03-19 11:15:00,39.2,29.9,30.28,ESE,119,8.0,14.0,69,0.00,,---,0.00,VWS V14.01,2013-03-19 16:15:00,
2013-03-19 11:20:00,39.5,29.5,30.29,SE,138,9.0,14.0,67,0.00,,---,0.00,VWS V14.01,2013-03-19 16:20:00,
2013-03-19 11:25:00,40.0,29.6,30.28,SE,127,12.0,18.0,66,0.00,,---,0.00,VWS V14.01,2013-03-19 16:25:00,
2013-03-19 11:30:00,40.7,29.9,30.28,SE,142,9.0,18.0,65,0.00,,---,0.00,VWS V14.01,2013-03-19 16:30:00,
2013-03-19 11:35:00,41.4,30.5,30.28,ESE,114,14.0,19.0,65,0.00,,---,0.00,VWS V14.01,2013-03-19 16:35:00,
2013-03-19 11:40:00,41.8,30.1,30.28,SE,145,13.0,21.0,63,0.00,,---,0.00,VWS V14.01,2013-03-19 16:40:00,
2013-03-19 11:45:00,42.2,29.7,30.28,SSE,154,12.0,21.0,61,0.00,,---,0.00,VWS V14.01,2013-03-19 16:45:00,
2013-03-19 11:50:00,42.1,29.6,30.28,SE,130,11.0,21.0,61,0.00,,---,0.00,VWS V14.01,2013-03-19 16:50:00,
2013-03-19 11:55:00,42.3,29.4,30.28,ESE,123,16.0,24.0,60,0.00,,---,0.00,VWS V14.01,2013-03-19 16:55:00,
2013-03-19 12:00:00,42.8,29.9,30.28,SE,129,8.0,24.0,60,0.00,,---,0.00,VWS V14.01,2013-03-19 17:00:00,
2013-03-19 12:05:00,43.6,29.8,30.28,SE,142,10.0,17.0,58,0.00,,---,0.00,VWS V14.01,2013-03-19 17:05:00,
2013-03-19 12:10:00,44.6,30.3,30.28,SE,133,8.0,17.0,57,0.00,,---,0.00,VWS V14.01,2013-03-19 17:10:00,
2013-03-19 12:15:00,44.7,29.5,30.28,SE,142,15.0,22.0,55,0.00,,---,0.00,VWS V14.01,2013-03-19 17:15:00,
2013-03-19 12:20:00,45.3,29.6,30.28,ESE,115,10.0,22.0,54,0.00,,---,0.00,VWS V14.01,2013-03-19 17:20:00,
2013-03-19 12:25:00,45.6,29.0,30.28,SSE,151,9.0,24.0,52,0.00,,---,0.00,VWS V14.01,2013-03-19 17:25:00,
2013-03-19 12:30:00,45.4,26.9,30.28,SE,140,6.0,24.0,48,0.00,,---,0.00,VWS V14.01,2013-03-19 17:30:00,
2013-03-19 12:35:00,45.2,26.2,30.28,SSE,161,6.0,15.0,47,0.00,,---,0.00,VWS V14.01,2013-03-19 17:35:00,
2013-03-19 12:40:00,45.5,25.9,30.28,SE,139,14.0,19.0,46,0.00,,---,0.00,VWS V14.01,2013-03-19 17:40:00,
2013-03-19 12:45:00,46.1,26.5,30.28,South,170,7.0,19.0,46,0.00,,---,0.00,VWS V14.01,2013-03-19 17:45:00,
2013-03-19 12:50:00,46.2,25.5,30.28,SSW,194,7.0,19.0,44,0.00,,---,0.00,VWS V14.01,2013-03-19 17:50:00,
2013-03-19 12:55:00,46.1,24.3,30.28,SSW,194,9.0,19.0,42,0.00,,---,0.00,VWS V14.01,2013-03-19 17:55:00,
2013-03-19 13:00:00,46.0,24.2,30.28,SSE,151,4.0,19.0,42,0.00,,---,0.00,VWS V14.01,2013-03-19 18:00:00,
2013-03-19 13:05:00,46.7,26.0,30.28,SE,125,5.0,16.0,44,0.00,,---,0.00,VWS V14.01,2013-03-19 18:05:00,
2013-03-19 13:10:00,46.7,25.4,30.28,SSE,155,8.0,17.0,43,0.00,,---,0.00,VWS V14.01,2013-03-19 18:10:00,
2013-03-19 13:15:00,47.0,27.3,30.28,SE,141,8.0,17.0,46,0.00,,---,0.00,VWS V14.01,2013-03-19 18:15:00,
2013-03-19 13:20:00,47.0,25.7,30.27,SE,141,5.0,18.0,43,0.00,,---,0.00,VWS V14.01,2013-03-19 18:20:00,
2013-03-19 13:25:00,46.5,25.8,30.28,SSE,165,5.0,18.0,44,0.00,,---,0.00,VWS V14.01,2013-03-19 18:25:00,
2013-03-19 13:30:00,45.7,24.5,30.27,SE,145,4.0,18.0,43,0.00,,---,0.00,VWS V14.01,2013-03-19 18:30:00,
2013-03-19 13:35:00,46.1,23.7,30.27,SSE,156,8.0,11.0,41,0.00,,---,0.00,VWS V14.01,2013-03-19 18:35:00,
2013-03-19 13:40:00,46.7,23.7,30.27,SE,139,2.0,16.0,40,0.00,,---,0.00,VWS V14.01,2013-03-19 18:40:00,
2013-03-19 13:45:00,47.9,23.5,30.26,SE,139,4.0,16.0,38,0.00,,---,0.00,VWS V14.01,2013-03-19 18:45:00,
2013-03-19 13:50:00,48.5,24.7,30.26,South,177,6.0,16.0,39,0.00,,---,0.00,VWS V14.01,2013-03-19 18:50:00,
2013-03-19 13:55:00,49.1,24.6,30.26,SSE,157,12.0,18.0,38,0.00,,---,0.00,VWS V14.01,2013-03-19 18:55:00,
2013-03-19 14:00:00,48.3,23.3,30.26,South,175,8.0,18.0,37,0.00,,---,0.00,VWS V14.01,2013-03-19 19:00:00,
2013-03-19 14:05:00,47.7,22.7,30.26,South,182,8.0,10.0,37,0.00,,---,0.00,VWS V14.01,2013-03-19 19:05:00,
2013-03-19 14:10:00,47.5,23.8,30.26,SSE,160,5.0,12.0,39,0.00,,---,0.00,VWS V14.01,2013-03-19 19:10:00,
2013-03-19 14:15:00,48.1,23.1,30.26,SSE,152,13.0,13.0,37,0.00,,---,0.00,VWS V14.01,2013-03-19 19:15:00,
2013-03-19 14:20:00,48.6,22.2,30.26,SE,145,6.0,16.0,35,0.00,,---,0.00,VWS V14.01,2013-03-19 19:20:00,
2013-03-19 14:25:00,48.5,21.4,30.25,SSE,151,7.0,16.0,34,0.00,,---,0.00,VWS V14.01,2013-03-19 19:25:00,
2013-03-19 14:30:00,48.5,22.1,30.26,South,173,5.0,17.0,35,0.00,,---,0.00,VWS V14.01,2013-03-19 19:30:00,
2013-03-19 14:35:00,48.4,22.0,30.26,SSE,150,12.0,16.0,35,0.00,,---,0.00,VWS V14.01,2013-03-19 19:35:00,
2013-03-19 14:40:00,47.9,22.2,30.26,SE,137,16.0,19.0,36,0.00,,---,0.00,VWS V14.01,2013-03-19 19:40:00,
2013-03-19 14:45:00,48.4,22.0,30.26,SE,137,10.0,19.0,35,0.00,,---,0.00,VWS V14.01,2013-03-19 19:45:00,
2013-03-19 14:50:00,48.8,22.4,30.25,SE,146,9.0,19.0,35,0.00,,---,0.00,VWS V14.01,2013-03-19 19:50:00,
2013-03-19 14:55:00,48.9,23.8,30.25,SE,141,11.0,19.0,37,0.00,,---,0.00,VWS V14.01,2013-03-19 19:55:00,
2013-03-19 15:00:00,49.3,22.8,30.25,South,180,7.0,19.0,35,0.00,,---,0.00,VWS V14.01,2013-03-19 20:00:00,
2013-03-19 15:05:00,49.4,22.2,30.25,SSE,154,10.0,14.0,34,0.00,,---,0.00,VWS V14.01,2013-03-19 20:05:00,
2013-03-19 15:10:00,48.9,22.5,30.25,SW,220,4.0,14.0,35,0.00,,---,0.00,VWS V14.01,2013-03-19 20:10:00,
2013-03-19 15:15:00,48.4,21.3,30.25,South,176,6.0,14.0,34,0.00,,---,0.00,VWS V14.01,2013-03-19 20:15:00,
2013-03-19 15:20:00,48.4,21.3,30.25,SW,228,6.0,14.0,34,0.00,,---,0.00,VWS V14.01,2013-03-19 20:20:00,
2013-03-19 15:25:00,48.5,20.7,30.25,SSE,165,11.0,14.0,33,0.00,,---,0.00,VWS V14.01,2013-03-19 20:25:00,
2013-03-19 15:30:00,48.7,20.2,30.25,SSE,165,8.0,14.0,32,0.00,,---,0.00,VWS V14.01,2013-03-19 20:30:00,
2013-03-19 15:35:00,48.7,20.2,30.25,SSE,152,4.0,13.0,32,0.00,,---,0.00,VWS V14.01,2013-03-19 20:35:00,
2013-03-19 15:40:00,49.0,19.7,30.25,South,170,9.0,15.0,31,0.00,,---,0.00,VWS V14.01,2013-03-19 20:40:00,
2013-03-19 15:45:00,48.7,20.2,30.25,South,176,3.0,15.0,32,0.00,,---,0.00,VWS V14.01,2013-03-19 20:45:00,
2013-03-19 15:50:00,48.8,21.0,30.25,SSE,168,3.0,15.0,33,0.00,,---,0.00,VWS V14.01,2013-03-19 20:50:00,
2013-03-19 15:55:00,48.9,20.4,30.25,South,180,4.0,15.0,32,0.00,,---,0.00,VWS V14.01,2013-03-19 20:55:00,
2013-03-19 16:00:00,48.8,20.3,30.25,South,184,5.0,15.0,32,0.00,,---,0.00,VWS V14.01,2013-03-19 21:00:00,
2013-03-19 16:05:00,49.1,21.3,30.25,SE,143,13.0,14.0,33,0.00,,---,0.00,VWS V14.01,2013-03-19 21:05:00,
2013-03-19 16:10:00,48.9,20.4,30.25,SSE,149,11.0,14.0,32,0.00,,---,0.00,VWS V14.01,2013-03-19 21:10:00,
2013-03-19 16:15:00,48.6,20.1,30.25,SE,137,9.0,14.0,32,0.00,,---,0.00,VWS V14.01,2013-03-19 21:15:00,
2013-03-19 16:20:00,48.6,20.8,30.25,SSE,168,2.0,14.0,33,0.00,,---,0.00,VWS V14.01,2013-03-19 21:20:00,
2013-03-19 16:25:00,48.9,20.4,30.25,South,170,3.0,14.0,32,0.00,,---,0.00,VWS V14.01,2013-03-19 21:25:00,
2013-03-19 16:30:00,49.2,19.9,30.25,SE,140,10.0,14.0,31,0.00,,---,0.00,VWS V14.01,2013-03-19 21:30:00,
2013-03-19 16:35:00,49.0,19.7,30.26,SSE,156,3.0,11.0,31,0.00,,---,0.00,VWS V14.01,2013-03-19 21:35:00,
2013-03-19 16:40:00,48.8,19.5,30.25,SSE,157,4.0,13.0,31,0.00,,---,0.00,VWS V14.01,2013-03-19 21:40:00,
2013-03-19 16:45:00,48.5,19.3,30.26,SSE,165,1.0,13.0,31,0.00,,---,0.00,VWS V14.01,2013-03-19 21:45:00,
2013-03-19 16:50:00,48.4,19.2,30.25,SSW,201,6.0,13.0,31,0.00,,---,0.00,VWS V14.01,2013-03-19 21:50:00,
2013-03-19 16:55:00,48.3,18.3,30.26,SSW,196,6.0,14.0,30,0.00,,---,0.00,VWS V14.01,2013-03-19 21:55:00,
2013-03-19 17:00:00,48.1,18.9,30.26,South,177,5.0,14.0,31,0.00,,---,0.00,VWS V14.01,2013-03-19 22:00:00,
2013-03-19 17:05:00,48.2,19.7,30.26,South,191,8.0,11.0,32,0.00,,---,0.00,VWS V14.01,2013-03-19 22:05:00,
2013-03-19 17:10:00,48.4,19.9,30.26,SSE,151,7.0,11.0,32,0.00,,---,0.00,VWS V14.01,2013-03-19 22:10:00,
2013-03-19 17:15:00,48.8,19.5,30.26,South,173,1.0,11.0,31,0.00,,---,0.00,VWS V14.01,2013-03-19 22:15:00,
2013-03-19 17:20:00,49.0,18.1,30.26,SSE,150,4.0,11.0,29,0.00,,---,0.00,VWS V14.01,2013-03-19 22:20:00,
2013-03-19 17:25:00,48.9,18.9,30.26,SSE,168,3.0,11.0,30,0.00,,---,0.00,VWS V14.01,2013-03-19 22:25:00,
2013-03-19 17:30:00,48.9,18.1,30.26,South,181,4.0,12.0,29,0.00,,---,0.00,VWS V14.01,2013-03-19 22:30:00,
2013-03-19 17:35:00,48.9,18.9,30.27,South,175,4.0,6.0,30,0.00,,---,0.00,VWS V14.01,2013-03-19 22:35:00,
2013-03-19 17:40:00,49.2,17.5,30.27,SSW,208,9.0,13.0,28,0.00,,---,0.00,VWS V14.01,2013-03-19 22:40:00,
2013-03-19 17:45:00,49.5,16.9,30.26,SSW,210,8.0,13.0,27,0.00,,---,0.00,VWS V14.01,2013-03-19 22:45:00,
2013-03-19 17:50:00,49.8,17.2,30.26,SSE,162,8.0,13.0,27,0.00,,---,0.00,VWS V14.01,2013-03-19 22:50:00,
2013-03-19 17:55:00,49.8,18.0,30.27,WSW,258,8.0,13.0,28,0.00,,---,0.00,VWS V14.01,2013-03-19 22:55:00,
2013-03-19 18:00:00,49.5,17.8,30.27,SW,229,5.0,14.0,28,0.00,,---,0.00,VWS V14.01,2013-03-19 23:00:00,
2013-03-19 18:05:00,49.5,16.9,30.27,SW,232,5.0,16.0,27,0.00,,---,0.00,VWS V14.01,2013-03-19 23:05:00,
2013-03-19 18:10:00,49.3,17.6,30.27,South,175,8.0,16.0,28,0.00,,---,0.00,VWS V14.01,2013-03-19 23:10:00,
2013-03-19 18:15:00,48.8,17.2,30.28,SSW,204,7.0,16.0,28,0.00,,---,0.00,VWS V14.01,2013-03-19 23:15:00,
2013-03-19 18:20:00,48.1,17.4,30.28,WSW,246,9.0,16.0,29,0.00,,---,0.00,VWS V14.01,2013-03-19 23:20:00,
2013-03-19 18:25:00,47.9,17.2,30.28,SSW,201,8.0,16.0,29,0.00,,---,0.00,VWS V14.01,2013-03-19 23:25:00,
2013-03-19 18:30:00,48.0,17.3,30.28,South,179,7.0,16.0,29,0.00,,---,0.00,VWS V14.01,2013-03-19 23:30:00,
2013-03-19 18:35:00,47.9,17.2,30.29,South,177,8.0,8.0,29,0.00,,---,0.00,VWS V14.01,2013-03-19 23:35:00,
2013-03-19 18:40:00,48.0,17.3,30.29,SW,236,8.0,10.0,29,0.00,,---,0.00,VWS V14.01,2013-03-19 23:40:00,
2013-03-19 18:45:00,47.9,17.2,30.29,SSW,198,4.0,12.0,29,0.00,,---,0.00,VWS V14.01,2013-03-19 23:45:00,
2013-03-19 18:50:00,47.7,17.8,30.30,SSW,200,4.0,12.0,30,0.00,,---,0.00,VWS V14.01,2013-03-19 23:50:00,
2013-03-19 18:55:00,47.4,17.5,30.30,SSW,210,5.0,12.0,30,0.00,,---,0.00,VWS V14.01,2013-03-19 23:55:00,
2013-03-19 19:00:00,47.0,18.0,30.30,SW,231,9.0,12.0,31,0.00,,---,0.00,VWS V14.01,2013-03-20 00:00:00,
2013-03-19 19:05:00,46.5,18.2,30.31,SSW,201,3.0,11.0,32,0.00,,---,0.00,VWS V14.01,2013-03-20 00:05:00,
2013-03-19 19:10:00,46.3,18.1,30.31,South,182,6.0,15.0,32,0.00,,---,0.00,VWS V14.01,2013-03-20 00:10:00,
2013-03-19 19:15:00,46.0,17.8,30.31,SSW,208,5.0,16.0,32,0.00,,---,0.00,VWS V14.01,2013-03-20 00:15:00,
2013-03-19 19:20:00,45.7,18.3,30.31,SW,235,6.0,16.0,33,0.00,,---,0.00,VWS V14.01,2013-03-20 00:20:00,
2013-03-19 19:25:00,45.3,17.9,30.32,SSE,168,7.0,16.0,33,0.00,,---,0.00,VWS V14.01,2013-03-20 00:25:00,
2013-03-19 19:30:00,45.0,18.3,30.32,South,187,6.0,16.0,34,0.00,,---,0.00,VWS V14.01,2013-03-20 00:30:00,
2013-03-19 19:35:00,44.8,17.5,30.32,SSW,199,6.0,7.0,33,0.00,,---,0.00,VWS V14.01,2013-03-20 00:35:00,
2013-03-19 19:40:00,44.5,17.2,30.32,SW,231,4.0,8.0,33,0.00,,---,0.00,VWS V14.01,2013-03-20 00:40:00,
2013-03-19 19:45:00,44.2,17.6,30.33,South,180,6.0,11.0,34,0.00,,---,0.00,VWS V14.01,2013-03-20 00:45:00,
2013-03-19 19:50:00,44.0,16.0,30.33,South,179,7.0,12.0,32,0.00,,---,0.00,VWS V14.01,2013-03-20 00:50:00,
2013-03-19 19:55:00,43.8,15.1,30.33,SSW,196,4.0,12.0,31,0.00,,---,0.00,VWS V14.01,2013-03-20 00:55:00,
2013-03-19 20:00:00,43.6,15.7,30.33,SSW,197,2.0,12.0,32,0.00,,---,0.00,VWS V14.01,2013-03-20 01:00:00,
2013-03-19 20:05:00,43.3,16.1,30.33,South,190,2.0,8.0,33,0.00,,---,0.00,VWS V14.01,2013-03-20 01:05:00,
2013-03-19 20:10:00,43.0,15.9,30.34,West,266,7.0,12.0,33,0.00,,---,0.00,VWS V14.01,2013-03-20 01:10:00,
2013-03-19 20:15:00,42.8,15.7,30.34,SSW,211,4.0,12.0,33,0.00,,---,0.00,VWS V14.01,2013-03-20 01:15:00,
2013-03-19 20:20:00,42.5,16.1,30.34,SW,235,8.0,12.0,34,0.00,,---,0.00,VWS V14.01,2013-03-20 01:20:00,
2013-03-19 20:25:00,42.4,16.0,30.34,South,189,2.0,12.0,34,0.00,,---,0.00,VWS V14.01,2013-03-20 01:25:00,
2013-03-19 20:30:00,42.1,16.4,30.35,SSW,193,6.0,12.0,35,0.00,,---,0.00,VWS V14.01,2013-03-20 01:30:00,
2013-03-19 20:35:00,41.9,16.3,30.35,South,180,1.0,5.0,35,0.00,,---,0.00,VWS V14.01,2013-03-20 01:35:00,
2013-03-19 20:40:00,41.7,16.7,30.35,SSW,197,4.0,7.0,36,0.00,,---,0.00,VWS V14.01,2013-03-20 01:40:00,
2013-03-19 20:45:00,41.6,16.6,30.35,SW,228,3.0,9.0,36,0.00,,---,0.00,VWS V14.01,2013-03-20 01:45:00,
2013-03-19 20:50:00,41.4,16.5,30.35,South,182,3.0,9.0,36,0.00,,---,0.00,VWS V14.01,2013-03-20 01:50:00,
2013-03-19 20:55:00,41.2,16.9,30.36,WSW,242,7.0,9.0,37,0.00,,---,0.00,VWS V14.01,2013-03-20 01:55:00,
2013-03-19 21:00:00,41.1,16.8,30.36,SSW,196,3.0,9.0,37,0.00,,---,0.00,VWS V14.01,2013-03-20 02:00:00,
2013-03-19 21:05:00,40.9,17.3,30.37,SSW,194,5.0,8.0,38,0.00,,---,0.00,VWS V14.01,2013-03-20 02:05:00,
2013-03-19 21:10:00,40.8,17.2,30.37,SSW,198,4.0,11.0,38,0.00,,---,0.00,VWS V14.01,2013-03-20 02:10:00,
2013-03-19 21:15:00,40.5,16.9,30.37,SSW,213,4.0,11.0,38,0.00,,---,0.00,VWS V14.01,2013-03-20 02:15:00,
2013-03-19 21:20:00,40.3,16.1,30.38,South,172,5.0,11.0,37,0.00,,---,0.00,VWS V14.01,2013-03-20 02:20:00,
2013-03-19 21:25:00,40.1,16.5,30.38,SW,229,5.0,11.0,38,0.00,,---,0.00,VWS V14.01,2013-03-20 02:25:00,
2013-03-19 21:30:00,39.8,16.3,30.38,SSW,193,2.0,11.0,38,0.00,,---,0.00,VWS V14.01,2013-03-20 02:30:00,
2013-03-19 21:35:00,39.5,16.6,30.39,SSW,204,4.0,8.0,39,0.00,,---,0.00,VWS V14.01,2013-03-20 02:35:00,
2013-03-19 21:40:00,39.2,16.9,30.39,WSW,249,6.0,9.0,40,0.00,,---,0.00,VWS V14.01,2013-03-20 02:40:00,
2013-03-19 21:45:00,38.9,16.6,30.40,SSW,213,4.0,9.0,40,0.00,,---,0.00,VWS V14.01,2013-03-20 02:45:00,
2013-03-19 21:50:00,38.7,17.0,30.40,West,266,4.0,9.0,41,0.00,,---,0.00,VWS V14.01,2013-03-20 02:50:00,
2013-03-19 21:55:00,38.3,16.7,30.40,SW,214,3.0,9.0,41,0.00,,---,0.00,VWS V14.01,2013-03-20 02:55:00,
2013-03-19 22:00:00,38.0,17.0,30.40,SSW,201,6.0,9.0,42,0.00,,---,0.00,VWS V14.01,2013-03-20 03:00:00,
2013-03-19 22:05:00,37.6,16.6,30.41,SW,229,3.0,8.0,42,0.00,,---,0.00,VWS V14.01,2013-03-20 03:05:00,
2013-03-19 22:10:00,37.3,16.9,30.41,SSW,204,3.0,10.0,43,0.00,,---,0.00,VWS V14.01,2013-03-20 03:10:00,
2013-03-19 22:15:00,36.9,17.0,30.41,SSW,211,2.0,10.0,44,0.00,,---,0.00,VWS V14.01,2013-03-20 03:15:00,
2013-03-19 22:20:00,36.6,16.8,30.41,SW,228,5.0,10.0,44,0.00,,---,0.00,VWS V14.01,2013-03-20 03:20:00,
2013-03-19 22:25:00,36.2,16.9,30.42,SSW,204,3.0,10.0,45,0.00,,---,0.00,VWS V14.01,2013-03-20 03:25:00,
2013-03-19 22:30:00,35.9,16.6,30.42,South,188,2.0,10.0,45,0.00,,---,0.00,VWS V14.01,2013-03-20 03:30:00,
2013-03-19 22:35:00,35.7,17.0,30.42,SSW,210,5.0,8.0,46,0.00,,---,0.00,VWS V14.01,2013-03-20 03:35:00,
2013-03-19 22:40:00,35.4,16.7,30.43,SSW,207,4.0,8.0,46,0.00,,---,0.00,VWS V14.01,2013-03-20 03:40:00,
2013-03-19 22:45:00,35.2,17.0,30.43,SW,227,6.0,8.0,47,0.00,,---,0.00,VWS V14.01,2013-03-20 03:45:00,
2013-03-19 22:50:00,34.9,17.2,30.44,South,183,3.0,11.0,48,0.00,,---,0.00,VWS V14.01,2013-03-20 03:50:00,
2013-03-19 22:55:00,34.6,17.9,30.44,WSW,242,3.0,11.0,50,0.00,,---,0.00,VWS V14.01,2013-03-20 03:55:00,
2013-03-19 23:00:00,34.4,18.6,30.44,WSW,252,5.0,11.0,52,0.00,,---,0.00,VWS V14.01,2013-03-20 04:00:00,
2013-03-19 23:05:00,34.0,19.1,30.45,West,263,4.0,11.0,54,0.00,,---,0.00,VWS V14.01,2013-03-20 04:05:00,
2013-03-19 23:10:00,33.7,19.3,30.45,South,190,4.0,11.0,55,0.00,,---,0.00,VWS V14.01,2013-03-20 04:10:00,
2013-03-19 23:15:00,33.4,19.8,30.45,South,180,5.0,11.0,57,0.00,,---,0.00,VWS V14.01,2013-03-20 04:15:00,
2013-03-19 23:20:00,33.1,19.9,30.45,WSW,246,5.0,11.0,58,0.00,,---,0.00,VWS V14.01,2013-03-20 04:20:00,
2013-03-19 23:25:00,32.8,20.1,30.45,SW,231,7.0,13.0,59,0.00,,---,0.00,VWS V14.01,2013-03-20 04:25:00,
2013-03-19 23:30:00,32.3,20.0,30.46,WSW,256,3.0,13.0,60,0.00,,---,0.00,VWS V14.01,2013-03-20 04:30:00,
2013-03-19 23:35:00,31.6,20.1,30.46,SW,221,3.0,13.0,62,0.00,,---,0.00,VWS V14.01,2013-03-20 04:35:00,
2013-03-19 23:40:00,31.0,20.3,30.47,West,260,4.0,13.0,64,0.00,,---,0.00,VWS V14.01,2013-03-20 04:40:00,
2013-03-19 23:45:00,30.6,20.2,30.47,SW,231,7.0,13.0,65,0.00,,---,0.00,VWS V14.01,2013-03-20 04:45:00,
2013-03-19 23:50:00,30.0,20.0,30.47,SW,228,4.0,13.0,66,0.00,,---,0.00,VWS V14.01,2013-03-20 04:50:00,
2013-03-19 23:55:00,29.5,19.9,30.47,West,270,5.0,13.0,67,0.00,,---,0.00,VWS V14.01,2013-03-20 04:55:00,